Location: West Sayville
(40.7279°N, 73.0976°W)
Time: 04:26:29
(UTC+00:00)

Meteor 2-15 - Pass Details

Date: 29 October 2020
Orbit: 935 x 956 km, 82.5° (Epoch: 27 November)

Event Time Altitude Azimuth Distance (km) Brightness Sun altitude
Rises 22:55:14 0° 177° (S) 3,619 7.6 -12.6°
Reaches altitude 10° 22:57:44 10° 175° (S) 2,677 6.8 -13.0°
Maximum altitude 23:03:48 67° 94° (E) 1,030 4.4 -14.2°
Drops below altitude 10° 23:09:53 10° 13° (NNE) 2,685 6.6 -15.3°
Sets 23:12:23 0° 11° (NNE) 3,631 7.3 -15.8°
